Weather History for South Padre Island, TX

Change the Weather History Date:

Wednesday, November 27, 2013

  Actual Average (KBRO) Record (KBRO)
Temperature  
Mean Temperature 50 °F 66 °F  
Max Temperature 55 °F 76 °F 88 °F (1973)
Min Temperature 44 °F 57 °F 36 °F (1993)
Degree Days  
Heating Degree Days 16 3  
Month to date heating degree days 42  
Since 1 July heating degree days 46  
Cooling Degree Days 0 4  
Month to date cooling degree days 168  
Year to date cooling degree days 3933  
Moisture  
Dew Point 37 °F    
Average Humidity 62    
Maximum Humidity 76    
Minimum Humidity 41    
Precipitation  
Precipitation 0.00 in 0.05 in 1.18 in (1881)
Month to date precipitation 1.69  
Year to date precipitation 26.16  
Sea Level Pressure  
Sea Level Pressure 30.39 in    
Wind  
Wind Speed 12 mph (NNW)    
Max Wind Speed 20 mph    
Max Gust Speed 24 mph    
Visibility 10 miles    
Events Thunderstorm    
T = Trace of Precipitation, MM = Missing Value Source: NWS Daily Summary

Daily Weather History Graph

Daily Weather History Graph

Search for Another Location

Airport:

Trip Planner

Search our weather history database for the weather conditions in past years. The results will help you decide how hot, cold, wet, or windy it might be!

Date:

Astronomy

Nov. 27, 2013 Rise Set
Actual Time 6:56 AM CST 5:36 PM CST
Civil Twilight 6:31 AM CST 6:01 PM CST
Nautical Twilight 6:02 AM CST 6:29 PM CST
Astronomical Twilight 5:35 AM CST 6:57 PM CST
Moon 1:30 AM CST (11/27) 1:46 PM CST (11/27)
Length of Visible Light 11h 30m
Length of Day
10h 40m
Waning Crescent, 31% of the Moon is Illuminated
Nov 27
Waning Crescent
Dec 2
New
Dec 9
First Quarter
Dec 17
Full
Dec 25
Last Quarter

Hourly Weather History & Observations

Time (CST) Temp. Windchill Dew Point Humidity Pressure Visibility Wind Dir Wind Speed Gust Speed Precip Events Conditions
12:15 AM 46.4 °F 41.5 °F 39.2 °F 76% 30.35 in 10.0 mi NNW 10.4 mph - N/A   Clear
12:35 AM 48.2 °F - 39.2 °F 71% 30.35 in 10.0 mi NW 11.5 mph 16.1 mph N/A   Clear
12:55 AM 46.4 °F 41.9 °F 39.2 °F 76% 30.35 in 10.0 mi NW 9.2 mph - N/A   Clear
1:15 AM 46.4 °F 42.4 °F 39.2 °F 76% 30.35 in 10.0 mi NW 8.1 mph - N/A   Clear
1:35 AM 46.4 °F 41.5 °F 39.2 °F 76% 30.35 in 10.0 mi NW 10.4 mph - N/A   Clear
1:55 AM 46.4 °F 41.1 °F 37.4 °F 71% 30.34 in 10.0 mi NNW 11.5 mph 17.3 mph N/A   Clear
2:15 AM 46.4 °F 40.4 °F 37.4 °F 71% 30.34 in 10.0 mi NNW 13.8 mph 18.4 mph N/A   Clear
2:35 AM 46.4 °F 40.7 °F 37.4 °F 71% 30.35 in 7.0 mi NNW 12.7 mph - N/A   Clear
2:55 AM 46.4 °F 40.4 °F 37.4 °F 71% 30.35 in 10.0 mi NNW 13.8 mph 19.6 mph N/A   Clear
3:15 AM 46.4 °F 41.5 °F 37.4 °F 71% 30.36 in 10.0 mi NNW 10.4 mph - N/A Thunderstorm Partly Cloudy
3:35 AM 46.4 °F 40.4 °F 37.4 °F 71% 30.36 in 10.0 mi NNW 13.8 mph - N/A   Partly Cloudy
3:55 AM 46.4 °F 40.1 °F 37.4 °F 71% 30.36 in 10.0 mi NNW 15.0 mph 20.7 mph N/A   Scattered Clouds
4:15 AM 46.4 °F 40.1 °F 37.4 °F 71% 30.36 in 10.0 mi NNW 15.0 mph 21.9 mph N/A   Mostly Cloudy
4:35 AM 46.4 °F 40.4 °F 37.4 °F 71% 30.36 in 10.0 mi NNW 13.8 mph - N/A   Mostly Cloudy
4:55 AM 46.4 °F 40.4 °F 37.4 °F 71% 30.36 in 10.0 mi NNW 13.8 mph - N/A   Partly Cloudy
5:15 AM 46.4 °F 40.4 °F 35.6 °F 66% 30.36 in 10.0 mi NNW 13.8 mph 18.4 mph N/A   Partly Cloudy
5:35 AM 44.6 °F 38.1 °F 35.6 °F 71% 30.36 in 10.0 mi NNW 13.8 mph 20.7 mph N/A   Scattered Clouds
5:55 AM 44.6 °F 38.4 °F 35.6 °F 71% 30.37 in 10.0 mi NNW 12.7 mph 19.6 mph N/A   Partly Cloudy
6:15 AM 44.6 °F 38.4 °F 35.6 °F 71% 30.38 in 10.0 mi NNW 12.7 mph 18.4 mph N/A   Mostly Cloudy
6:35 AM 44.6 °F 38.4 °F 35.6 °F 71% 30.39 in 7.0 mi NNW 12.7 mph 18.4 mph N/A   Mostly Cloudy
6:55 AM 44.6 °F 37.8 °F 35.6 °F 71% 30.40 in 10.0 mi NNW 15.0 mph - N/A   Partly Cloudy
7:15 AM 44.6 °F 37.8 °F 35.6 °F 71% 30.41 in 10.0 mi NNW 15.0 mph - N/A   Clear
7:35 AM 46.4 °F 40.7 °F 35.6 °F 66% 30.41 in 10.0 mi NNW 12.7 mph 20.7 mph N/A   Clear
7:55 AM 46.4 °F 39.2 °F 35.6 °F 66% 30.42 in 10.0 mi NNW 18.4 mph - N/A   Clear
8:15 AM 46.4 °F 39.5 °F 35.6 °F 66% 30.42 in 10.0 mi NNW 17.3 mph 23.0 mph N/A   Clear
8:35 AM 48.2 °F - 35.6 °F 62% 30.42 in 10.0 mi NNW 18.4 mph 23.0 mph N/A   Clear
8:55 AM 48.2 °F - 35.6 °F 62% 30.43 in 10.0 mi NNW 17.3 mph 24.2 mph N/A   Clear
9:15 AM 50.0 °F - 37.4 °F 62% 30.44 in 9.0 mi NNW 16.1 mph 24.2 mph N/A   Clear
9:35 AM 50.0 °F - 37.4 °F 62% 30.44 in 7.0 mi NNW 13.8 mph 23.0 mph N/A   Clear
9:55 AM 50.0 °F - 39.2 °F 66% 30.44 in 10.0 mi NNW 15.0 mph 23.0 mph N/A   Clear
10:15 AM 50.0 °F - 37.4 °F 62% 30.44 in 10.0 mi NNW 18.4 mph 24.2 mph N/A   Clear
10:35 AM 50.0 °F - 37.4 °F 62% 30.44 in 10.0 mi NNW 17.3 mph 21.9 mph N/A   Clear
10:55 AM 51.8 °F - 39.2 °F 62% 30.44 in 10.0 mi NNW 16.1 mph 21.9 mph N/A   Clear
11:15 AM 51.8 °F - 39.2 °F 62% 30.43 in 5.0 mi NNW 13.8 mph 21.9 mph N/A   Haze
11:35 AM 53.6 °F - 39.2 °F 58% 30.43 in 10.0 mi NNW 15.0 mph - N/A   Clear
11:55 AM 53.6 °F - 39.2 °F 58% 30.43 in 10.0 mi NNW 19.6 mph 24.2 mph N/A   Clear
12:15 PM 53.6 °F - 39.2 °F 58% 30.42 in 8.0 mi NNW 15.0 mph - N/A   Clear
12:35 PM 53.6 °F - 39.2 °F 58% 30.41 in 10.0 mi NNW 19.6 mph 24.2 mph N/A   Clear
12:55 PM 53.6 °F - 39.2 °F 58% 30.41 in 9.0 mi NNW 18.4 mph 21.9 mph N/A   Clear
1:15 PM 53.6 °F - 39.2 °F 58% 30.40 in 9.0 mi NNW 15.0 mph 20.7 mph N/A   Clear
1:35 PM 53.6 °F - 37.4 °F 54% 30.40 in 10.0 mi NNW 13.8 mph 18.4 mph N/A   Clear
1:55 PM 55.4 °F - 32.0 °F 41% 30.39 in 10.0 mi North 12.7 mph - N/A   Clear
2:15 PM 55.4 °F - 32.0 °F 41% 30.38 in 9.0 mi North 8.1 mph - N/A   Clear
2:35 PM 55.4 °F - 35.6 °F 47% 30.37 in 10.0 mi North 13.8 mph - N/A   Clear
2:55 PM 55.4 °F - 37.4 °F 51% 30.37 in 9.0 mi North 12.7 mph - N/A   Clear
3:15 PM 53.6 °F - 37.4 °F 54% 30.36 in 8.0 mi North 12.7 mph - N/A   Clear
3:35 PM 53.6 °F - 37.4 °F 54% 30.36 in 10.0 mi North 11.5 mph - N/A   Clear
3:55 PM 53.6 °F - 35.6 °F 51% 30.36 in 10.0 mi NNE 12.7 mph - N/A   Clear
4:15 PM 53.6 °F - 35.6 °F 51% 30.36 in 10.0 mi North 10.4 mph - N/A   Clear
4:35 PM 53.6 °F - 35.6 °F 51% 30.36 in 10.0 mi North 9.2 mph - N/A   Clear
4:55 PM 53.6 °F - 35.6 °F 51% 30.36 in 9.0 mi North 10.4 mph - N/A   Clear
5:15 PM 51.8 °F - 35.6 °F 54% 30.36 in 6.0 mi North 10.4 mph - N/A   Haze
5:35 PM 51.8 °F - 35.6 °F 54% 30.36 in 9.0 mi North 10.4 mph - N/A   Clear
5:55 PM 50.0 °F - 35.6 °F 58% 30.37 in 10.0 mi North 9.2 mph - N/A   Clear
6:15 PM 50.0 °F - 33.8 °F 54% 30.37 in 8.0 mi North 10.4 mph - N/A   Clear
6:35 PM 50.0 °F - 35.6 °F 58% 30.38 in 10.0 mi North 11.5 mph 16.1 mph N/A   Clear
6:55 PM 50.0 °F - 33.8 °F 54% 30.39 in 9.0 mi North 9.2 mph - N/A   Clear
7:15 PM 50.0 °F - 35.6 °F 58% 30.39 in 10.0 mi North 9.2 mph - N/A   Clear
7:35 PM 51.8 °F - 35.6 °F 54% 30.39 in 10.0 mi NNE 12.7 mph - N/A   Clear
7:55 PM 51.8 °F - 35.6 °F 54% 30.39 in 10.0 mi NNE 13.8 mph - N/A   Clear
8:15 PM 51.8 °F - 33.8 °F 50% 30.39 in 10.0 mi NNE 11.5 mph - N/A   Clear
8:35 PM 51.8 °F - 35.6 °F 54% 30.40 in 10.0 mi NNE 12.7 mph - N/A   Clear
8:55 PM 51.8 °F - 35.6 °F 54% 30.41 in 10.0 mi NNE 11.5 mph - N/A   Clear
9:15 PM 51.8 °F - 35.6 °F 54% 30.40 in 10.0 mi NNE 10.4 mph - N/A   Clear
9:35 PM 51.8 °F - 37.4 °F 58% 30.40 in 8.0 mi NE 10.4 mph - N/A   Clear
9:55 PM 51.8 °F - 37.4 °F 58% 30.40 in 10.0 mi NE 10.4 mph - N/A   Clear
10:15 PM 51.8 °F - 37.4 °F 58% 30.40 in 8.0 mi NNE 9.2 mph - N/A   Clear
10:35 PM 51.8 °F - 39.2 °F 62% 30.40 in 10.0 mi NNE 6.9 mph - N/A   Clear
10:55 PM 50.0 °F - 37.4 °F 62% 30.40 in 10.0 mi Calm Calm - N/A   Clear
11:15 PM 48.2 °F - 39.2 °F 71% 30.40 in 10.0 mi NW 4.6 mph - N/A   Clear
11:35 PM - - - N/A% 30.39 in 10.0 mi NNW 3.5 mph - N/A   Clear
11:55 PM 48.2 °F - 39.2 °F 71% 30.39 in 10.0 mi NNW 5.8 mph - N/A   Clear